Regional Weather Roundup
Issued by NWS

Home | Current Version | Previous Version | Graphics & Text | Print | Product List | Glossary On
Versions: 1 2 3 4 5 6 7 8 9 10 11 12 13 14 15 16 17 18 19 20 21 22 23 24 25 26 27 28 29 30 31 32 33 34 35 36 37 38 39 40 41 42 43 44 45 46 47 48 49 50
000
ASUS43 KMPX 281901
RWRMN
WEATHER ROUNDUP FOR MINNESOTA
NATIONAL WEATHER SERVICE TWIN CITIES/CHANHASSEN MN
100 PM CST SUN DEC 28 2014


NOTE: "FAIR" INDICATES FEW OR NO CLOUDS BELOW 12,000 FEET WITH NO
SIGNIFICANT WEATHER AND/OR OBSTRUCTIONS TO VISIBILITY. N/A MEANS
CURRENT SKY AND/OR WEATHER CONDITIONS ARE NOT AVAILABLE.

MNZ060>063-068>070-282000-
   Twin Cities Metro

CITY           SKY/WX    TMP DP  RH WIND       PRES   REMARKS
TWIN CITIES    CLOUDY    22  15  75 NE5       30.17S WCI  16
ST PAUL        CLOUDY    22  15  75 VRB5      30.19S WCI  16
CRYSTAL        MOSUNNY   23  15  71 NE6       30.16S WCI  16
BLAINE         PTSUNNY   25  18  74 N8        30.16S WCI  16
LAKEVILLE      CLOUDY    19  16  86 CALM      30.15S
EDEN PRAIRIE   CLOUDY    21  14  74 CALM      30.16S
SOUTH ST PAUL  CLOUDY    22  15  75 N3        30.17S
LAKE ELMO      CLOUDY    21  16  79 N6        30.16F WCI  14
$$
MNZ001>005-007-008-013>017-022>024-027-028-282000-
   Northwest Minnesota

CITY           SKY/WX    TMP DP  RH WIND       PRES   REMARKS
BEMIDJI        SUNNY      4  -3  74 NW5       30.20F WCI  -5
HALLOCK        SUNNY     -4 -11  71 NW7       30.34S WCI -18
ROSEAU         SUNNY     -2  -9  71 W8        30.28S WCI -17
WARROAD        SUNNY      0  -9  65 W7        30.26S WCI -13
THIEF RVR FALL SUNNY     -2  -6  84 NW8       30.28S WCI -17
CROOKSTON      SUNNY     -4  -9  77 N10       30.34S WCI -21
FOSSTON        SUNNY      3  -6  66 CALM      30.25S
DETROIT LAKES  SUNNY      9   3  78 NW8       30.21S WCI  -4
MOORHEAD       SUNNY      5   0  78 N12       30.28S WCI -11
PARK RAPIDS    SUNNY      9  -3  58 N6        30.18F WCI  -1
MAHNOMEN       FAIR       1  -4  77 N7        30.24S WCI -11
$$
MNZ006-009>011-018-025>026-282000-
   North Central Minnesota

CITY           SKY/WX    TMP DP  RH WIND       PRES   REMARKS
BAUDETTE       SUNNY     -3 -12  65 VRB5      30.24S WCI -13
FLAG ISLAND    SUNNY     -6 -13  71 N7        30.24F WCI -20
INTL FALLS     SUNNY      2  -8  63 W7        30.21S WCI -11
WASKISH        SUNNY      1  -6  71 CALM      30.23S
BIG FORK       SUNNY      7  -4  61 NW5       30.19S WCI  -2
LONGVILLE      SUNNY      7  -2  66 NW5       30.19F WCI  -2
GRAND RAPIDS   SUNNY      3  -4  72 NW3       30.17F
CRANE LAKE     SUNNY      1  -8  66 NW5       30.21S WCI  -8
ORR            SUNNY      3  -8  60 NW8       30.15S WCI -10
COOK           SUNNY      3  -6  66 NW6       30.17S WCI  -8
WALKER         FAIR       6  -4  65 N3        30.19F
$$
MNZ012-019>021-037-282000-
   Northeast Minnesota

CITY           SKY/WX    TMP DP  RH WIND       PRES   REMARKS
DULUTH         SUNNY      9  -5  53 N10       30.14R WCI  -5
ELY            SUNNY      3  -8  60 W8        30.14S WCI -10
HIBBING        SUNNY      6  -5  60 NW8       30.17S WCI  -7
EVELETH        SUNNY      5  -4  66 W5        30.17S WCI  -4
DULUTH HARBOR  SUNNY     14  -2  48 CALM      30.22S
TWO HARBORS    SUNNY     12   0  57 NW6       30.14S WCI   3
SILVER BAY     SUNNY     12  -2  52 NW6       30.13S WCI   3
GRAND MARAIS     N/A     13  -2  51 VRB5      30.16S WCI   5
G MARAIS ARPRT SUNNY      3  -6  66 NW12G17   30.02S WCI -13
$$
MNZ029>031-032-039>041-046>048-054>057-064-282000-
   West Central Minnesota

CITY           SKY/WX    TMP DP  RH WIND       PRES   REMARKS
FERGUS FALLS   MOSUNNY   12  -2  52 N7        30.24F WCI   2
WHEATON        PTSUNNY    9   3  78 N10       30.25S WCI  -6
MORRIS         PTSUNNY   19  12  73 N13       30.17F WCI   7
ALEXANDRIA     FAIR      17   8  67 N7        30.17S WCI   8
ELBOW LAKE     FAIR      13   5  70 N7        30.19S WCI   2
WADENA         SUNNY     12   0  57 NE9       30.18S WCI   0
GLENWOOD       PTSUNNY   18  12  79 NE9       30.16F WCI   6
APPLETON       PTSUNNY   21  14  73 N14       30.19S WCI   8
BENSON         PTSUNNY   23  14  68 NE8       30.18S WCI  14
ORTONVILLE     PTSUNNY   14   9  79 N15       30.20S WCI  -1
MADISON        PTSUNNY   21  18  86 N13       30.19S WCI   9
WILLMAR        PTSUNNY   25  16  68 N9        30.17S WCI  15
$$
MNZ033>034-036-042>043-049>051-058-059-282000-
   Central Minnesota

CITY           SKY/WX    TMP DP  RH WIND       PRES   REMARKS
ST CLOUD       MOSUNNY   23   9  55 N10       30.17S WCI  12
SAUK CENTRE    MOCLDY    18   9  67 N8        30.17S WCI   8
PAYNESVILLE    CLOUDY    20  12  69 NW8       30.17R WCI  10
AITKIN         SUNNY     16   0  48 N6        30.16F WCI   7
PINE RIVER     SUNNY      9   0  66 N6        30.21F WCI  -1
BRAINERD       SUNNY     13   0  56 N10       30.18F WCI   0
STAPLES        SUNNY     12   0  57 N5        30.18S WCI   4
LONG PRAIRIE   FAIR      18   5  57 N8        30.17S WCI   7
LITTLE FALLS   SUNNY     19   5  53 N6        30.18S WCI  11
LITCHFIELD     CLOUDY    23  19  86 NE9       30.16S WCI  13
BUFFALO        CLOUDY    24  17  74 N5        30.17S WCI  18
MAPLE LAKE     CLOUDY    24  18  80 N7        30.17S WCI  15
$$
MNZ037-044-045-052-053-282000-
   East Central Minnesota

CITY           SKY/WX    TMP DP  RH WIND       PRES   REMARKS
PRINCETON      MOSUNNY   23  10  58 N9        30.16S WCI  13
MORA           SUNNY     19   7  58 N5        30.18S WCI  13
CAMBRIDGE      PTSUNNY   21  10  63 N7        30.15S WCI  13
RUSH CITY      MOSUNNY   21   9  61 N8        30.17F WCI  11
MOOSE LAKE     SUNNY     16   0  48 N7        30.16S WCI   6
HINCKLEY       FAIR      19   9  63 CALM      30.17S
CLOQUET        SUNNY     10  -2  56 NW8       30.16S WCI  -1
MCGREGOR       SUNNY     14   0  52 N5        30.18F WCI   6
$$
MNZ071>073-080-081-089-090-097-098-282000-
   Southwest Minnesota

CITY           SKY/WX    TMP DP  RH WIND       PRES   REMARKS
MONTEVIDEO     PTSUNNY   25  18  74 NE8         N/A  WCI  16
GRANITE FALLS  CLOUDY    25  18  74 N7        30.18F WCI  17
CANBY          CLOUDY    20  16  85 N10       30.18F WCI   9
MARSHALL       CLOUDY    21  16  79 N8        30.16S WCI  12
REDWOOD FALLS  MOSUNNY   24  18  77 VRB3      30.16F
OLIVIA         CLOUDY    23  19  86 N7        30.16S WCI  15
PIPESTONE      CLOUDY    19  18  93 E8G16     30.10F FOG     WCI   9
WINDOM         SUNNY     19  16  86 N8        30.13F WCI   9
WORTHINGTON    SUNNY     19 -26  12 N8        30.12S WCI   9
JACKSON        SUNNY     23  18  80 N8        30.12F WCI  14
TRACY          CLOUDY    21  20  93 N7        30.15F FOG     WCI  13
SLAYTON        CLOUDY    19  18  96 N12       30.12F FOG     WCI   6
$$
MNZ065>067-074>077-082>085-091>093-282000-
   South Central Minnesota

CITY           SKY/WX    TMP DP  RH WIND       PRES   REMARKS
MANKATO        MOSUNNY   18  12  79 N5        30.15F WCI  11
NEW ULM        CLOUDY    16  14  93 CALM      30.17S FOG
ST JAMES       SUNNY     18  16  93 NW5       30.16F WCI  11
FAIRMONT       SUNNY     21  12  68 N6        30.14S WCI  14
GLENCOE        CLOUDY    23  20  89 N7        30.15S WCI  15
FARIBAULT      SUNNY     21  16  79 CALM      30.15S
OWATONNA       SUNNY     16  10  79 CALM      30.13F
ALBERT LEA     SUNNY     19  14  79 N5        30.12F WCI  13
$$
MNZ078>079-086>088-094>096-282000-
   Southeast Minnesota

CITY           SKY/WX    TMP DP  RH WIND       PRES   REMARKS
ROCHESTER      SUNNY     17  11  77 NW6       30.12F WCI   9
RED WING       CLOUDY    19  12  73 CALM      30.16F
STANTON        SUNNY     19  12  75 CALM      30.15S
DODGE CENTER   SUNNY     19  14  79 CALM      30.11F
WINONA         SUNNY     23  14  68 CALM      30.17S
AUSTIN         SUNNY     18  12  79 NW3       30.12F
PRESTON        SUNNY     17  12  80 W3        30.12F
$$
ABBREVIATIONS USED IN REMARKS
   TC - TEMPERATURES IN CELSIUS
  WCI - WIND CHILL INDEX
   HX - HEAT INDEX
  VSB - VISIBILITY
$$



USA.gov is the U.S. government's official web portal to all federal, state and local government web resources and services.